When you browse on this site, cookies collect data to enhance your experience and personalize the content and advertising you see.
Visit our Privacy Policy to learn more. By continuing to use the site, you agree to this use of cookies and data.
  • In Hungary
  • List of Countries
  • For 7 days
  • Water Temperature
  • Satellite Maps
  • Weather Map
  • News
  • Weather Widgets
  • user-avatar
    Login

    Hourly Weather Canillo

    Today, 21 April, Sunday

    Time Temperature Precipitation Wind Pressure Humidity
    00:00 +3°C° 0 mm 1 mps 617 mmHg 88%
    01:00 +3°C° 0.9 mm 1 mps 617 mmHg 89%
    02:00 +3°C° 0.9 mm 1 mps 616 mmHg 90%
    03:00 +3°C° 0.9 mm 1 mps 616 mmHg 91%
    04:00 +3°C° 0.7 mm 1 mps 615 mmHg 92%
    05:00 +3°C° 0.7 mm 1 mps 615 mmHg 92%
    06:00 +3°C° 0.7 mm 1 mps 615 mmHg 93%
    07:00 +4°C° 0.3 mm 1 mps 615 mmHg 91%
    08:00 +4°C° 0.3 mm 2 mps 615 mmHg 89%
    09:00 +4°C° 0.3 mm 2 mps 615 mmHg 87%
    10:00 +5°C° 0.1 mm 2 mps 615 mmHg 82%
    11:00 +7°C° 0.1 mm 2 mps 616 mmHg 78%
    12:00 +8°C° 0.1 mm 2 mps 616 mmHg 73%
    13:00 +8°C° 0.1 mm 2 mps 616 mmHg 73%
    14:00 +8°C° 0.1 mm 2 mps 615 mmHg 73%
    15:00 +8°C° 0.1 mm 2 mps 615 mmHg 73%
    16:00 +8°C° 0 mm 1 mps 614 mmHg 76%
    17:00 +7°C° 0 mm 1 mps 614 mmHg 79%
    18:00 +6°C° 0 mm 1 mps 613 mmHg 82%
    19:00 +5°C° 0 mm 1 mps 613 mmHg 84%
    20:00 +4°C° 0 mm 1 mps 612 mmHg 85%
    21:00 +3°C° 0 mm 1 mps 612 mmHg 87%
    22:00 +3°C° 0 mm 1 mps 611 mmHg 86%
    23:00 +3°C° 0 mm 1 mps 611 mmHg 85%

    Tomorrow, 22 April, Monday

    Time Temperature Precipitation Wind Pressure Humidity
    00:00 +2°C° 0 mm 1 mps 610 mmHg 85%
    01:00 +2°C° 0 mm 1 mps 610 mmHg 85%
    02:00 +3°C° 0 mm 1 mps 609 mmHg 85%
    03:00 +3°C° 0 mm 1 mps 609 mmHg 85%
    04:00 +3°C° 0.1 mm 1 mps 609 mmHg 85%
    05:00 +3°C° 0.1 mm 1 mps 609 mmHg 85%
    06:00 +4°C° 0.1 mm 1 mps 609 mmHg 86%
    07:00 +5°C° 0.3 mm 1 mps 609 mmHg 83%
    08:00 +6°C° 0.3 mm 1 mps 609 mmHg 81%
    09:00 +7°C° 0.3 mm 1 mps 610 mmHg 79%
    10:00 +8°C° 0.1 mm 1 mps 610 mmHg 76%
    11:00 +9°C° 0.1 mm 1 mps 610 mmHg 73%
    12:00 +10°C° 0.1 mm 1 mps 610 mmHg 71%
    13:00 +10°C° 0.2 mm 1 mps 609 mmHg 72%
    14:00 +10°C° 0.2 mm 1 mps 609 mmHg 73%
    15:00 +10°C° 0.2 mm 1 mps 608 mmHg 74%
    16:00 +9°C° 0.5 mm 1 mps 608 mmHg 78%
    17:00 +8°C° 0.5 mm 1 mps 607 mmHg 81%
    18:00 +6°C° 0.5 mm 0 mps 607 mmHg 84%
    19:00 +7°C° 0.3 mm 1 mps 607 mmHg 87%
    20:00 +6°C° 0.3 mm 1 mps 607 mmHg 90%
    21:00 +5°C° 0.3 mm 1 mps 607 mmHg 93%
    22:00 +5°C° 0.6 mm 1 mps 606 mmHg 94%
    23:00 +5°C° 0.6 mm 1 mps 606 mmHg 94%

    Day after tomorrow, 23 April, Tuesday

    Time Temperature Precipitation Wind Pressure Humidity
    00:00 +5°C° 0.6 mm 1 mps 606 mmHg 95%
    01:00 +4°C° 0.5 mm 2 mps 605 mmHg 95%
    02:00 +4°C° 0.5 mm 2 mps 605 mmHg 94%
    03:00 +4°C° 0.5 mm 2 mps 605 mmHg 94%
    04:00 +4°C° 0.1 mm 2 mps 605 mmHg 92%
    05:00 +4°C° 0.1 mm 2 mps 605 mmHg 91%
    06:00 +5°C° 0.1 mm 1 mps 605 mmHg 89%
    07:00 +6°C° 0 mm 2 mps 606 mmHg 83%
    08:00 +7°C° 0 mm 2 mps 606 mmHg 77%
    09:00 +9°C° 0 mm 2 mps 607 mmHg 71%
    10:00 +9°C° 0.4 mm 3 mps 607 mmHg 69%
    11:00 +10°C° 0.4 mm 3 mps 607 mmHg 67%
    12:00 +10°C° 0.4 mm 3 mps 607 mmHg 65%
    13:00 +10°C° 0.2 mm 4 mps 607 mmHg 65%
    14:00 +8°C° 0.2 mm 4 mps 607 mmHg 65%
    15:00 +8°C° 0.2 mm 4 mps 607 mmHg 66%
    16:00 +8°C° 0.1 mm 3 mps 606 mmHg 72%
    17:00 +7°C° 0.1 mm 3 mps 606 mmHg 78%
    18:00 +6°C° 0.1 mm 2 mps 606 mmHg 85%
    19:00 +5°C° 0.1 mm 2 mps 606 mmHg 88%
    20:00 +4°C° 0.1 mm 2 mps 607 mmHg 92%
    21:00 +4°C° 0.1 mm 2 mps 607 mmHg 96%
    22:00 +4°C° 0.4 mm 2 mps 607 mmHg 96%
    23:00 +4°C° 0.4 mm 2 mps 607 mmHg 96%

    24 April, Wednesday

    Time Temperature Precipitation Wind Pressure Humidity
    00:00 +4°C° 0.4 mm 2 mps 607 mmHg 96%
    01:00 +3°C° 1 mm 2 mps 607 mmHg 96%
    02:00 +3°C° 1 mm 2 mps 607 mmHg 96%
    03:00 +3°C° 1 mm 2 mps 607 mmHg 96%
    04:00 +2°C° 0.1 mm 2 mps 607 mmHg 95%
    05:00 +2°C° 0.1 mm 2 mps 607 mmHg 93%
    06:00 0°C° 0.1 mm 3 mps 607 mmHg 91%
    07:00 +1°C° 0 mm 3 mps 608 mmHg 82%
    08:00 +2°C° 0 mm 3 mps 609 mmHg 72%
    09:00 +3°C° 0 mm 4 mps 610 mmHg 63%
    10:00 +4°C° 0.1 mm 4 mps 610 mmHg 59%
    11:00 +3°C° 0.1 mm 5 mps 610 mmHg 56%
    12:00 +5°C° 0.1 mm 5 mps 611 mmHg 52%
    13:00 +5°C° 0 mm 5 mps 611 mmHg 52%
    14:00 +6°C° 0 mm 5 mps 611 mmHg 52%
    15:00 +6°C° 0 mm 4 mps 611 mmHg 52%
    16:00 +5°C° 0 mm 4 mps 611 mmHg 55%
    17:00 +5°C° 0 mm 3 mps 611 mmHg 58%
    18:00 +4°C° 0 mm 3 mps 611 mmHg 61%
    19:00 +2°C° 0 mm 3 mps 611 mmHg 63%
    20:00 +1°C° 0 mm 3 mps 611 mmHg 65%
    21:00 0°C° 0 mm 3 mps 611 mmHg 67%
    22:00 0°C° 0 mm 3 mps 611 mmHg 73%
    23:00 -1°C° 0 mm 4 mps 611 mmHg 79%

    25 April, Thursday

    Time Temperature Precipitation Wind Pressure Humidity
    00:00 -1°C° 0 mm 4 mps 610 mmHg 85%
    01:00 0°C° 0 mm 4 mps 610 mmHg 86%
    02:00 0°C° 0 mm 4 mps 610 mmHg 87%
    03:00 0°C° 0 mm 4 mps 610 mmHg 88%
    04:00 0°C° 0.3 mm 4 mps 611 mmHg 88%
    05:00 +1°C° 0.3 mm 4 mps 611 mmHg 89%
    06:00 +1°C° 0.3 mm 4 mps 611 mmHg 89%
    07:00 +3°C° 0.2 mm 4 mps 612 mmHg 88%
    08:00 +3°C° 0.2 mm 4 mps 612 mmHg 86%
    09:00 +4°C° 0.2 mm 4 mps 613 mmHg 84%
    10:00 +4°C° 0.3 mm 4 mps 613 mmHg 84%
    11:00 +4°C° 0.3 mm 4 mps 613 mmHg 83%
    12:00 +5°C° 0.3 mm 4 mps 614 mmHg 83%
    13:00 +5°C° 0.3 mm 4 mps 614 mmHg 84%
    14:00 +5°C° 0.3 mm 3 mps 614 mmHg 85%
    15:00 +5°C° 0.3 mm 3 mps 614 mmHg 86%
    16:00 +5°C° 0.2 mm 3 mps 614 mmHg 86%
    17:00 +5°C° 0.2 mm 2 mps 614 mmHg 85%
    18:00 +5°C° 0.2 mm 2 mps 614 mmHg 85%
    19:00 +3°C° 0.1 mm 2 mps 614 mmHg 87%
    20:00 +2°C° 0.1 mm 2 mps 614 mmHg 88%
    21:00 +2°C° 0.1 mm 1 mps 614 mmHg 89%
    22:00 +1°C° 0 mm 1 mps 614 mmHg 87%
    23:00 0°C° 0 mm 1 mps 614 mmHg 85%

    26 April, Friday

    Time Temperature Precipitation Wind Pressure Humidity
    00:00 -1°C° 0 mm 1 mps 614 mmHg 83%
    01:00 0°C° 0.4 mm 1 mps 615 mmHg 86%
    02:00 -2°C° 0.4 mm 2 mps 615 mmHg 90%
    03:00 -2°C° 0.4 mm 2 mps 616 mmHg 93%
    04:00 -2°C° 0.2 mm 2 mps 616 mmHg 93%
    05:00 -2°C° 0.2 mm 2 mps 617 mmHg 92%
    06:00 -2°C° 0.2 mm 2 mps 618 mmHg 91%
    07:00 +1°C° 0 mm 2 mps 619 mmHg 84%
    08:00 +2°C° 0 mm 2 mps 619 mmHg 77%
    09:00 +3°C° 0 mm 2 mps 620 mmHg 70%
    10:00 +5°C° 0 mm 2 mps 621 mmHg 64%
    11:00 +7°C° 0 mm 2 mps 622 mmHg 58%
    12:00 +9°C° 0 mm 1 mps 623 mmHg 53%
    13:00 +8°C° 0 mm 2 mps 622 mmHg 55%
    14:00 +7°C° 0 mm 2 mps 622 mmHg 58%
    15:00 +7°C° 0 mm 2 mps 622 mmHg 61%
    16:00 +6°C° 0 mm 2 mps 622 mmHg 68%
    17:00 +5°C° 0 mm 2 mps 621 mmHg 75%
    18:00 +4°C° 0 mm 2 mps 621 mmHg 81%
    19:00 +3°C° 0 mm 2 mps 622 mmHg 85%
    20:00 +2°C° 0 mm 2 mps 622 mmHg 89%
    21:00 +1°C° 0 mm 2 mps 622 mmHg 93%
    22:00 -1°C° 0 mm 2 mps 622 mmHg 91%
    23:00 -1°C° 0 mm 2 mps 622 mmHg 90%
    Show more